TimeAKDT,TemperatureF,Dew PointF,Humidity,Sea Level PressureIn,VisibilityMPH,Wind Direction,Wind SpeedMPH,Gust SpeedMPH,PrecipitationIn,Events,Conditions,WindDirDegrees,DateUTC
12:16 AM,50.0,39.2,66,29.62,10.0,South,9.2,-,N/A,,Overcast,180,2012-09-17 08:16:00
12:36 AM,50.0,39.2,66,29.63,10.0,SSW,10.4,17.3,N/A,,Overcast,200,2012-09-17 08:36:00
12:56 AM,50.0,39.2,66,29.64,10.0,SW,11.5,16.1,N/A,,Overcast,220,2012-09-17 08:56:00
1:16 AM,50.0,39.2,66,29.65,10.0,SSW,9.2,17.3,N/A,,Overcast,210,2012-09-17 09:16:00
1:36 AM,48.2,39.2,71,29.66,10.0,SSW,10.4,17.3,N/A,,Overcast,210,2012-09-17 09:36:00
1:56 AM,48.2,39.2,71,29.67,10.0,South,10.4,-,N/A,,Overcast,190,2012-09-17 09:56:00
2:16 AM,48.2,39.2,71,29.67,10.0,South,10.4,18.4,N/A,,Mostly Cloudy,190,2012-09-17 10:16:00
2:36 AM,48.2,39.2,71,29.68,10.0,South,8.1,-,N/A,,Partly Cloudy,180,2012-09-17 10:36:00
2:56 AM,48.2,39.2,71,29.69,10.0,South,9.2,-,N/A,,Clear,180,2012-09-17 10:56:00
3:16 AM,48.2,39.2,71,29.70,10.0,SSW,10.4,17.3,N/A,,Partly Cloudy,210,2012-09-17 11:16:00
3:36 AM,48.2,39.2,71,29.72,10.0,South,11.5,19.6,N/A,,Mostly Cloudy,180,2012-09-17 11:36:00
3:56 AM,48.2,37.4,66,29.73,10.0,SSW,9.2,17.3,N/A,,Overcast,200,2012-09-17 11:56:00
4:16 AM,46.4,37.4,71,29.73,10.0,South,6.9,-,N/A,,Partly Cloudy,190,2012-09-17 12:16:00
4:36 AM,46.4,37.4,71,29.75,10.0,South,9.2,-,N/A,,Partly Cloudy,190,2012-09-17 12:36:00
4:56 AM,46.4,37.4,71,29.75,10.0,South,6.9,-,N/A,,Clear,190,2012-09-17 12:56:00
5:16 AM,46.4,37.4,71,29.75,10.0,South,8.1,-,N/A,,Partly Cloudy,190,2012-09-17 13:16:00
5:36 AM,46.4,37.4,71,29.76,10.0,South,8.1,-,N/A,,Clear,180,2012-09-17 13:36:00
5:56 AM,46.4,37.4,71,29.77,10.0,South,12.7,16.1,N/A,,Partly Cloudy,190,2012-09-17 13:56:00
6:16 AM,46.4,37.4,71,29.78,10.0,SSW,9.2,-,N/A,,Scattered Clouds,200,2012-09-17 14:16:00
6:36 AM,46.4,37.4,71,29.79,10.0,SSW,6.9,-,N/A,,Scattered Clouds,210,2012-09-17 14:36:00
6:56 AM,46.4,37.4,71,29.79,10.0,SSW,13.8,21.9,N/A,,Mostly Cloudy,200,2012-09-17 14:56:00
7:16 AM,46.4,35.6,66,29.79,10.0,South,15.0,24.2,N/A,,Mostly Cloudy,190,2012-09-17 15:16:00
7:36 AM,46.4,35.6,66,29.79,10.0,South,13.8,21.9,N/A,,Scattered Clouds,190,2012-09-17 15:36:00
7:56 AM,46.4,35.6,66,29.81,10.0,South,8.1,17.3,N/A,,Clear,190,2012-09-17 15:56:00
8:16 AM,44.6,35.6,71,29.82,10.0,South,5.8,-,N/A,,Clear,180,2012-09-17 16:16:00
8:36 AM,44.6,35.6,71,29.82,10.0,South,8.1,-,N/A,,Clear,180,2012-09-17 16:36:00
8:56 AM,46.4,37.4,71,29.83,10.0,South,8.1,-,N/A,,Clear,180,2012-09-17 16:56:00
9:16 AM,46.4,37.4,71,29.84,10.0,South,4.6,-,N/A,,Clear,190,2012-09-17 17:16:00
9:36 AM,46.4,35.6,66,29.86,10.0,South,8.1,-,N/A,,Clear,190,2012-09-17 17:36:00
9:56 AM,46.4,37.4,71,29.86,10.0,South,6.9,-,N/A,,Clear,190,2012-09-17 17:56:00
10:16 AM,46.4,35.6,66,29.86,10.0,SSW,4.6,-,N/A,,Clear,200,2012-09-17 18:16:00
10:36 AM,48.2,37.4,66,29.87,10.0,South,9.2,16.1,N/A,,Mostly Cloudy,190,2012-09-17 18:36:00
10:56 AM,48.2,37.4,66,29.88,10.0,SSW,12.7,-,N/A,,Mostly Cloudy,200,2012-09-17 18:56:00
11:16 AM,48.2,37.4,66,29.88,10.0,SSW,8.1,16.1,N/A,,Mostly Cloudy,200,2012-09-17 19:16:00
11:36 AM,48.2,35.6,62,29.89,10.0,SW,10.4,20.7,N/A,,Overcast,220,2012-09-17 19:36:00
11:56 AM,48.2,35.6,62,29.89,10.0,SW,8.1,18.4,N/A,,Overcast,220,2012-09-17 19:56:00
12:16 PM,51.8,35.6,54,29.89,10.0,SSW,12.7,-,N/A,,Overcast,200,2012-09-17 20:16:00
12:36 PM,50.0,37.4,62,29.90,10.0,West,11.5,-,N/A,,Overcast,260,2012-09-17 20:36:00
12:56 PM,48.2,37.4,66,29.90,10.0,WSW,9.2,-,N/A,,Overcast,250,2012-09-17 20:56:00
1:16 PM,51.8,37.4,58,29.90,10.0,WSW,9.2,-,N/A,,Overcast,250,2012-09-17 21:16:00
1:36 PM,51.8,37.4,58,29.91,10.0,SSW,10.4,19.6,N/A,,Overcast,210,2012-09-17 21:36:00
1:56 PM,51.8,35.6,54,29.91,8.0,WSW,12.7,20.7,N/A,,Overcast,250,2012-09-17 21:56:00
2:16 PM,51.8,39.2,62,29.92,10.0,West,12.7,16.1,N/A,,Overcast,260,2012-09-17 22:16:00
2:36 PM,51.8,37.4,58,29.92,10.0,WSW,6.9,-,N/A,,Overcast,250,2012-09-17 22:36:00
2:56 PM,51.8,37.4,58,29.92,10.0,SSE,6.9,-,N/A,,Overcast,160,2012-09-17 22:56:00
3:16 PM,51.8,37.4,58,29.91,10.0,South,4.6,-,N/A,,Overcast,190,2012-09-17 23:16:00
3:36 PM,51.8,37.4,58,29.91,10.0,West,8.1,-,N/A,,Overcast,260,2012-09-17 23:36:00
3:56 PM,51.8,37.4,58,29.92,10.0,WNW,9.2,-,N/A,,Overcast,290,2012-09-17 23:56:00
4:16 PM,51.8,39.2,62,29.92,10.0,Calm,Calm,-,N/A,,Overcast,0,2012-09-18 00:16:00
4:36 PM,51.8,37.4,58,29.91,10.0,West,5.8,-,N/A,,Overcast,260,2012-09-18 00:36:00
4:56 PM,51.8,39.2,62,29.91,10.0,West,3.5,-,N/A,,Overcast,280,2012-09-18 00:56:00
5:16 PM,51.8,39.2,62,29.91,10.0,WNW,8.1,-,N/A,,Overcast,290,2012-09-18 01:16:00
5:36 PM,51.8,37.4,58,29.92,10.0,West,8.1,-,N/A,,Overcast,280,2012-09-18 01:36:00
5:56 PM,51.8,37.4,58,29.91,10.0,West,3.5,-,N/A,,Overcast,260,2012-09-18 01:56:00
6:16 PM,51.8,37.4,58,29.91,10.0,Calm,Calm,-,N/A,,Mostly Cloudy,0,2012-09-18 02:16:00
6:36 PM,51.8,39.2,62,29.91,10.0,Calm,Calm,-,N/A,,Partly Cloudy,0,2012-09-18 02:36:00
6:56 PM,51.8,39.2,62,29.91,10.0,Calm,Calm,-,N/A,,Clear,0,2012-09-18 02:56:00
7:16 PM,50.0,39.2,66,29.91,10.0,SW,3.5,-,N/A,,Clear,220,2012-09-18 03:16:00
7:36 PM,50.0,37.4,62,29.91,10.0,Calm,Calm,-,N/A,,Clear,0,2012-09-18 03:36:00
7:56 PM,48.2,39.2,71,29.91,10.0,ESE,5.8,-,N/A,,Clear,120,2012-09-18 03:56:00
8:16 PM,48.2,39.2,71,29.91,10.0,South,3.5,-,N/A,,Clear,180,2012-09-18 04:16:00
8:36 PM,48.2,39.2,71,29.90,10.0,SE,4.6,-,N/A,,Partly Cloudy,130,2012-09-18 04:36:00
8:56 PM,48.2,37.4,66,29.90,10.0,ESE,4.6,-,N/A,,Mostly Cloudy,120,2012-09-18 04:56:00
9:16 PM,46.4,39.2,76,29.90,10.0,ESE,3.5,-,N/A,,Overcast,120,2012-09-18 05:16:00
9:36 PM,46.4,37.4,71,29.89,10.0,Calm,Calm,-,N/A,,Overcast,0,2012-09-18 05:36:00
9:56 PM,46.4,37.4,71,29.90,10.0,Calm,Calm,-,N/A,,Overcast,0,2012-09-18 05:56:00
10:16 PM,46.4,37.4,71,29.89,10.0,ENE,3.5,-,N/A,,Overcast,70,2012-09-18 06:16:00
10:36 PM,46.4,39.2,76,29.89,10.0,East,3.5,-,N/A,,Overcast,100,2012-09-18 06:36:00
10:56 PM,44.6,39.2,81,29.89,10.0,Calm,Calm,-,N/A,,Overcast,0,2012-09-18 06:56:00
11:16 PM,44.6,39.2,81,29.88,10.0,East,3.5,-,N/A,,Overcast,100,2012-09-18 07:16:00
11:36 PM,44.6,41.0,87,29.88,10.0,Calm,Calm,-,N/A,,Overcast,0,2012-09-18 07:36:00
11:56 PM,44.6,41.0,87,29.86,10.0,Calm,Calm,-,N/A,,Overcast,0,2012-09-18 07:56:00